STARLINK-1361 (45567 NORAD) Tracking and Keplerian Element Data

This shows tracking and keplerian element data for the satellite.

Feedback or suggestion? Click here.




ElementValue
Catalog45567
NameSTARLINK-1361
Epoch Orbit182
Epoch Day188.91667824
Epoch Year2020
RAAN30.5273
Inclination52.9955
Eccentricity0.0001178
Argument of Perigee71.3347
Mean Anonmoly219.1308
Mean Motion15.52824139
Decay Rate-0.01174258
L11 45567U 20025AN 20188.91667824 -.01174258 00000-0 -20717-1 0 9996
L22 45567 52.9955 30.5273 0001178 71.3347 219.1308 15.52824139 1821

Live tracking and technical data element details for STARLINK-1361 (NORAD 45567). STARLINK-1361 can be tracked NOW for your location showing map with azimuth and elevation plus other details from your city location.

Track the satellite on the map from your city or location and see movement details for azimuth, elevation, latitude, longitude, range, height, and movement on the map or in text.







IsCatalogInMostPopularTable: catalog: 45567, numindb: 17
Update: records affected: 1



GetName: 45567 STARLINK-1361

Hit Count: updated at: Wed, 08 Jul 2020 05:05:32 GMT